Погода в Элликкале

Узбекистан     41°49′29″N   60°55′38″E
темп.,
°C
ветер,
м/с
пор.,
м/с
влажн.,
%
обл.,
%
осадки,
мм/ч
давл.,
гПа
погр.,
м
27 февраля, сб
сб2723:00−2ююз5918100 0.1 1029550
02:00−2ююз7112399 0.0 1026568
05:00−1ююз7123096 0.1 1025580
08:00−1юз7134799 0.1 1024634
11:00−1юз8119098 0.4 1025447
14:00+2юз71073100 0.3 1025550
17:00+4юз696997 0.3 1024502
20:00+2ююз4870100 0.0 1024185
28 февраля, вс
вс2823:00+3ююз5866100 0.0 1024145
02:00+1ю465892 0.0 102398
05:000ю454272 0.0 102277
08:00+1ююв45370 0.0 102288
11:00+5ююв462630 0.0 1021321
14:00+9ююв462464 0.0 1019679
17:00+10юв352546 0.0 1017527
20:00+6юв343429 0.0 101731
1 марта, пн
пн123:00+5ююв454315 0.0 101847
02:00+4ююв34440 0.0 101729
05:00+3ююв34450 0.0 101623
08:00+3ююв33460 0.0 101722
11:00+9ю23321 0.0 1017275
14:00+14юз24250 0.0 1017827
17:00+15з45240 0.0 10161222
20:00+10зсз34330 0.0 101837
2 марта, вт
вт223:00+7св23430 0.0 102026
02:00+4с58670 0.0 1021156
05:00+2с58930 0.0 1022223
08:00+1с498729 0.0 1024282
11:00+4ссв567263 0.0 1025507
14:00+7с346069 0.0 1025812
17:00+7с336085 0.0 1024900
20:00+6ссв4468100 0.0 1025458
3 марта, ср
ср323:00+4ссв347299 0.0 1025191
02:00+3св237780 0.0 102542
05:00+2в237884 0.0 102446
08:00+2в3478100 0.0 1023107
11:00+6вюв446085 0.0 1023481
14:00+8юв334858 0.0 1021938
17:00+9вюв334734 0.0 10181101
20:00+8в465186 0.0 1017277